TimeCST,TemperatureF,Dew PointF,Humidity,Sea Level PressureIn,VisibilityMPH,Wind Direction,Wind SpeedMPH,Gust SpeedMPH,PrecipitationIn,Events,Conditions,WindDirDegrees,DateUTC
12:52 AM,46.9,33.1,59,30.35,10.0,ESE,3.5,-,N/A,,Clear,110,2012-11-16 06:52:00
1:52 AM,42.1,33.1,70,30.36,10.0,SE,4.6,-,N/A,,Clear,140,2012-11-16 07:52:00
2:52 AM,43.0,32.0,65,30.37,10.0,Calm,Calm,-,N/A,,Clear,0,2012-11-16 08:52:00
3:52 AM,39.9,32.0,73,30.37,10.0,Calm,Calm,-,N/A,,Clear,0,2012-11-16 09:52:00
4:52 AM,39.9,32.0,73,30.38,10.0,North,4.6,-,N/A,,Clear,350,2012-11-16 10:52:00
5:52 AM,39.0,32.0,76,30.40,10.0,NNW,4.6,-,N/A,,Clear,340,2012-11-16 11:52:00
6:52 AM,41.0,34.0,76,30.40,10.0,North,3.5,-,N/A,,Scattered Clouds,360,2012-11-16 12:52:00
7:52 AM,39.9,35.1,83,30.42,9.0,NNW,5.8,-,N/A,,Partly Cloudy,330,2012-11-16 13:52:00
8:52 AM,48.0,37.9,68,30.42,7.0,ENE,3.5,-,N/A,,Partly Cloudy,60,2012-11-16 14:52:00
9:52 AM,55.0,34.0,45,30.42,10.0,Calm,Calm,-,N/A,,Partly Cloudy,0,2012-11-16 15:52:00
10:52 AM,57.9,32.0,37,30.42,10.0,SSE,3.5,-,N/A,,Partly Cloudy,150,2012-11-16 16:52:00
11:52 AM,60.1,30.0,32,30.40,10.0,SSE,8.1,-,N/A,,Clear,150,2012-11-16 17:52:00
12:52 PM,60.1,30.0,32,30.37,10.0,South,6.9,-,N/A,,Clear,170,2012-11-16 18:52:00
1:52 PM,62.1,28.9,29,30.35,10.0,SSW,9.2,-,N/A,,Clear,200,2012-11-16 19:52:00
2:52 PM,62.1,30.0,30,30.33,10.0,SSE,8.1,-,N/A,,Clear,160,2012-11-16 20:52:00
3:52 PM,61.0,30.0,31,30.34,10.0,SSE,8.1,-,N/A,,Clear,160,2012-11-16 21:52:00
4:52 PM,57.9,30.0,35,30.34,10.0,South,4.6,-,N/A,,Clear,170,2012-11-16 22:52:00
5:52 PM,52.0,30.9,45,30.34,10.0,SSE,4.6,-,N/A,,Clear,150,2012-11-16 23:52:00
6:52 PM,50.0,30.0,46,30.35,10.0,Calm,Calm,-,N/A,,Clear,0,2012-11-17 00:52:00
7:52 PM,50.0,28.9,44,30.35,10.0,Calm,Calm,-,N/A,,Clear,0,2012-11-17 01:52:00
8:52 PM,48.0,32.0,54,30.35,10.0,ESE,5.8,-,N/A,,Clear,120,2012-11-17 02:52:00
9:52 PM,45.0,30.9,58,30.35,10.0,SSE,4.6,-,N/A,,Clear,160,2012-11-17 03:52:00
10:52 PM,41.0,30.9,67,30.35,10.0,SE,5.8,-,N/A,,Clear,140,2012-11-17 04:52:00
11:52 PM,39.9,30.9,70,30.35,10.0,SE,4.6,-,N/A,,Clear,140,2012-11-17 05:52:00